Tracking 19817 objects as of 18-Aug-2019
HD Live streaming from Space Station
objects crossing your sky now

FENGYUN 1C DEB

Track FENGYUN 1C DEB now!
10-day predictions


NORAD ID: 37908
Int'l Code: 1999-025ENH
Perigee: 741.6 km
Apogee: 861.5 km
Inclination: 99.1 °
Period: 100.8 minutes
Semi major axis: 7172 km
RCS: 0.0082 m2 (small)
Launch date: May 10, 1999
Source: People's Republic of China (PRC)
Launch site: Taiyaun Space Center, China (TSC)

Note: This is SATELLITE DEBRIS
aabbcc
Your satellite tracking list
Your tracking list is empty




NASA's NSSDC Master Catalog

Two Line Element Set (TLE):
1 37908U 99025ENH 19226.90316279 +.00000139 +00000-0 +70884-4 0  9993
2 37908 099.0890 113.8718 0083596 023.5780 336.9197 14.29209437309875
Source of the keplerian elements: AFSPC